Location: Unspecified
(44.3800°N, 0.0000°E)
Time: 06:53:42
(UTC+00:00)

Tiangong 2 - Visible Passes

Search period start: 21 May 2019 00:00
Search period end: 31 May 2019 00:00
Orbit: 379 x 387 km, 42.8° (Epoch: 21 May)

Date Brightness Start Highest point End Pass type
(mag) Time Alt. Az. Time Alt. Az. Time Alt. Az.
21 May 1.2 21:33:17 10° WSW 21:36:04 55° SSW 21:36:04 55° SSW visible
22 May 1.3 20:33:23 10° WSW 20:36:25 47° SSE 20:39:09 12° E visible
22 May 2.8 22:09:53 10° W 22:11:20 25° W 22:11:20 25° W visible
23 May 1.0 21:09:53 10° W 21:13:00 66° S 21:14:11 33° ESE visible
24 May 1.1 20:09:54 10° WSW 20:13:00 59° S 20:16:05 10° E visible
24 May 1.5 21:46:30 10° W 21:49:05 47° SW 21:49:05 47° SW visible
25 May 1.0 20:46:28 10° W 20:49:35 64° S 20:51:42 18° ESE visible
25 May 3.6 22:23:15 10° W 22:23:52 14° WSW 22:23:52 14° WSW visible
26 May 1.5 21:23:07 10° W 21:26:07 42° SSW 21:26:26 41° S visible
27 May 1.2 20:23:04 10° W 20:26:08 55° S 20:28:58 12° ESE visible
27 May 3.3 22:00:04 10° WSW 22:01:08 16° WSW 22:01:08 16° WSW visible
28 May 2.1 20:59:47 10° W 21:02:36 30° SSW 21:03:40 24° SSE visible
29 May 3.4 21:37:14 10° WSW 21:38:21 13° SW 21:38:21 13° SW visible
30 May 2.8 20:36:33 10° WSW 20:39:00 21° SSW 20:40:54 13° SSE visible
